THORAD AGENA D DEB, 4686

Orbit data source: Space-Track

THORAD AGENA D DEB, 4686 is space debris in SSO originally from a launch on Wed, 08 Apr 1970 UTC launched from the Air Force Western Test Range (AFWTR). Debris objects in space refer to the collection of defunct objects orbiting the Earth. Examples of debris include non-operational satellites, rocket bodies, and fragments generated from explosions, collisions, or faulty payload assembly.

Loading next visibility...
Identifier
4686, 1970-025BK
Orbit
SSO
Country
Flag of USUS
Related business
Manufacturer
Unknown
Mission
Spacecraft
Bus & Motor
Unknown
Mass
Unknown
Launch date (UTC)
1970-04-08 (56 years ago)
Launch vehicle
Unknown
Launch site
Air Force Western Test Range (AFWTR)
Object type
Payload
Rocket body
Debris
Shape & HBR
Unknown shape, 0.1 m
Radar Cross Section
Medium (>0.1 m² and <1 m²)

Expand to show TLE details & history
Last TLE update: 9 hours ago

TLE from 9 hours ago
0 THORAD AGENA D DEB
1 04686U 70025BK  26208.22409220  .00000470  00000-0  71425-3 0  9990
2 04686 100.2030 313.2183 0034643  10.6409  21.4721 13.58015745776144
Epoch: 2026-07-27T05:22Z
TLE epoch observation values (Epoch: 2026-07-27T05:22:41.566Z)
Latitude
31.74689°
Longitude
-78.72631°
Altitude
1,022.93 km
Speed
7.355 km/s
True Right ascension
20h 27m 25s
True Declination
31° 35' 55"
Sunlit
Object was in full shadow at epoch
Visualization orbit readout
Latitude
Unknown
Longitude
Unknown
Altitude
Unknown
Speed
Unknown
Apparent Right ascension
Unknown
Apparent Declination
Unknown
Sunlit
N/A
Visualization observer readout
Local Sidereal Time
03:52:42
Azimuth
Unknown
Elevation
Unknown
Doppler factor
Unknown
Orbital elements
Apogee altitude
1,065.929 km
Perigee altitude
1,014.53 km
Semi-major axis
7,418.366 km
Eccentricity
0.00346
Inclination
100.203°
RAAN
313.2183°
Arg. of periapsis
10.6409°
True anomaly
21.618°
Mean anomaly
21.4721°
Eccentric anomaly
21.54499°
Mean motion
3.39688 °/min
Orbital period
105.98 mins
BSTAR
0.00071425
Loading maneuver chart data...
Computing Atmospheric mass density...

Documentation

Showing up to 5 results
|